格洛纳斯M-754 COSMOS 2492 [GLONASS-M]

导读 | 豆包AI

COSMOS 2492是俄罗斯在2014年3月23日发射的GLONASS-M系列导航卫星,隶属于格洛纳斯全球卫星导航系统,接替原属独立国家联合体(CIS)苏联时代的导航卫星组网。GLONASS作为俄罗斯自主可控的全球导航系统,打破美国GPS垄断,该卫星运行于约19100公里中地球轨道,轨道周期约11小时15分,携带高精度铯原子钟,为全球军民用户提供定位、导航与授时服务,延续GLONASS系统星座补网与服务稳定性。

基本信息
目录编号:
39620
目录名称:
COSMOS 2492 (GLONASS)
国际标识:
2014-012A
轨道中心:
EARTH
卫星名称:
格洛纳斯M-754
卫星全名:
格洛纳斯M-754 COSMOS 2492 [GLONASS-M]
卫星状态:
在轨 (已飞行4374 天)
发射日期:
2014-03-23 UTC
国别 :
俄罗斯(独联体) (CIS)
星等 :
--
轨道信息
数据来源 国际轨道数据 AOE轨道数据
星历时间 2026-03-13T22:37:26+0800
18小时前
查看轨道信息
2026-03-13T08:00:00+0800
1天前
查看轨道信息
半长轴 25507.913km 25507.897km
偏心率 0.0013035 0.0013106
轨道倾角 65.352° 65.353°
近地点辐角 327.289° 326.977°
升交点赤经 317.187° 317.207°
平近点角 32.691° 285.548°
近地点 19096.526km 19096.329km
远地点 19163.026km 19163.191km
周期 675.728分钟 675.728分钟
每日圈数 2.131034 2.131036
详细信息
平衡模式:
三轴稳定
覆盖范围:
全球
运营商:
列舍特涅夫卫星信息系统
运营商所在国:
俄罗斯
制造商(研发单位):
列舍特涅夫卫星信息系统
制造商所在国:
俄罗斯
使用方式:
暂无
卫星简介
格洛纳斯(GLONASS )是苏联/俄罗斯研制卫星导航系统。标准配置为24颗卫星,其中18颗卫星就能保证该系统为俄罗斯境内用户提供全部服务。该卫星仍在工作。
2D轨道图
3D轨道图
轨道高度分析图
轨道倾角分析图
轨道综合分析图
查看轨道综合分析图